Location: Turtle Rock Observatory
(36.6913°N, 81.9708°W)
Time: 03:28:13
(UTC-05:00)

Daily predictions for brighter satellites

Satellite Brightness Start Highest point End
(mag) Time Altitude Azimuth Time Altitude Azimuth Time Altitude Azimuth
Cosmos 2297 4.2 04:42:45 58° E 04:42:45 58° E 04:48:02 10° SE
ATLAS CENTAUR Rocket 3.9 04:47:52 37° WSW 04:52:02 51° S 04:57:12 10° ESE
USA 215 3.2 04:48:46 10° NE 04:55:20 85° SE 04:56:46 58° SW
Cosmos 2278 Rocket 3.9 05:00:57 21° S 05:00:57 21° S 05:02:50 10° S
SL-16 R/B 3.0 05:05:26 38° N 05:05:26 38° N 05:08:57 10° NNE
Cosmos 1680 Rocket 4.4 05:06:01 36° NNE 05:06:01 36° NNE 05:09:05 10° NNE
Tiangong 2 4.3 05:06:52 11° NE 05:06:52 11° NE 05:07:04 10° NE
Meteor 1-25 Rocket 4.4 05:03:07 10° S 05:08:55 76° E 05:14:45 10° NNE
Cosmos 921 Rocket 4.3 05:08:05 28° NNE 05:09:47 40° ENE 05:14:01 10° SE
CENTAUR R/B 3.4 05:12:47 34° NNW 05:12:47 34° NNW 05:17:32 10° NNE
Abrixas rocket 4.5 05:11:31 24° SE 05:11:31 24° SE 05:14:07 10° E
COSMO-SKYMED 1 4.2 05:09:41 10° SE 05:13:34 33° ENE 05:17:08 12° N
Cosmos 1812 3.2 05:17:05 57° ESE 05:17:05 57° ESE 05:20:33 10° SSE
Cosmos 1238 Rocket 3.6 05:17:54 30° N 05:20:27 80° E 05:26:18 10° S
Cosmos 2112 Rocket 3.9 05:23:28 61° NW 05:23:28 61° NW 05:28:14 10° N
Cosmos 1346 Rocket 3.9 05:23:02 21° NNE 05:25:14 41° ENE 05:28:58 10° SSE
Cosmos 2327 Rocket 4.5 05:21:22 10° S 05:27:46 89° E 05:34:08 10° N
NOAA 6 4.0 05:23:34 10° NNE 05:28:43 84° ESE 05:33:50 10° SSW
Cosmos 2074 Rocket 3.9 05:30:34 10° SSW 05:36:49 73° W 05:43:06 10° N
Cosmos 1300 Rocket 4.1 05:32:47 10° S 05:37:07 58° E 05:41:28 10° NNE
Timation 1 Rocket 4.4 05:35:28 41° WNW 05:37:08 53° WSW 05:42:56 10° S
PSLV R/B 4.1 05:38:42 41° NNE 05:38:42 41° NNE 05:41:41 10° E
Lacrosse 5 2.3 05:34:49 10° SSW 05:39:50 61° SE 05:44:53 10° NE
CZ-4 R/B 4.4 05:39:22 10° NE 05:41:54 16° E 05:44:25 10° SE
Thor Agena Rocket 4.4 05:45:00 10° SSW 05:48:38 28° WSW 05:48:38 28° WSW
Cosmos 192 4.5 05:45:07 10° S 05:50:00 74° ESE 05:54:54 10° NNE
Cosmos 1536 4.4 05:47:11 10° SSE 05:50:52 36° E 05:54:33 10° NNE
Cosmos 2184 Rocket 4.0 05:45:40 10° SSW 05:51:41 57° W 05:57:47 10° N
Cosmos 44 Rocket 3.7 05:46:38 10° SSW 05:51:48 72° ESE 05:56:56 10° NE
SL-08 ROCKET BODY 4.4 05:46:27 10° SSW 05:52:16 52° W 05:58:02 10° N
CSL-04 Rocket 4.2 05:49:25 10° NNE 05:54:56 63° ESE 06:00:22 10° S
Cosmos 1603 3.7 05:55:16 10° SSW 06:00:53 61° WNW 06:06:31 10° NNE
SKYMED 2 3.5 05:57:15 10° S 06:01:32 66° WSW 06:05:46 11° NNW
BREEZE-M DEB (TANK) 4.1 06:00:12 19° WSW 06:03:17 77° NNW 06:17:19 10° NE
CSL-04 DEB 4.3 05:59:44 10° N 06:03:48 79° WNW 06:07:57 10° SSW
Cosmos 2151 Rocket 4.4 06:01:07 10° SW 06:05:01 28° WNW 06:08:55 10° NNW
Cosmos 2369 Rocket 3.4 05:59:42 10° N 06:05:06 41° ENE 06:10:27 10° SE
Gbstr 26 Del rocket 4.0 06:05:08 25° W 06:06:27 30° SW 06:10:01 10° S
Cosmos 2154 Rocket 3.9 06:00:54 10° S 06:07:07 85° W 06:13:20 10° N
Cosmos 2056 Rocket 3.4 06:02:50 10° NNW 06:08:01 89° WSW 06:13:07 10° SSE
Kosmos-1675 3.4 06:15:37 10° SSW 06:17:56 81° ESE 06:25:31 10° NNE
GPS 2-05 Rocket1 3.2 06:19:34 20° W 06:21:47 59° SSW 06:25:22 10° ESE
Cosmos 1624 Rocket 4.1 06:16:43 10° NNW 06:21:55 60° WSW 06:27:08 10° S
Ariane Rocket 3.1 06:19:52 10° N 06:24:46 52° WNW 06:29:39 10° SSW
Cosmos 1371 Rocket 4.4 06:21:15 10° NNW 06:26:15 43° WSW 06:31:10 10° S
Cosmos 1943 3.1 06:21:28 10° SSW 06:27:04 83° WNW 06:32:45 10° NNE
IDEFIX/ARIANE 42P 3.7 06:23:32 10° NNE 06:28:34 48° E 06:33:34 10° S
YAOGAN 1 3.6 06:30:58 10° NNE 06:35:12 51° E 06:39:24 10° S
USA 215 4.1 06:32:19 10° NNE 06:37:50 30° NNW 06:43:21 10° W
Tiangong 2 2.5 06:38:56 13° NW 06:41:12 26° N 06:43:54 10° ENE
Cosmos 1025 Rocket 3.0 06:37:01 10° N 06:41:25 81° W 06:45:45 10° S
SL-8 Rocket 4.1 06:36:19 10° S 06:42:35 83° E 06:48:50 10° N
Okean 1 Rocket 3.9 06:40:56 10° SW 06:44:45 28° WNW 06:48:34 10° NNW
Abrixas rocket 2.9 06:44:58 10° W 06:48:08 38° NNW 06:51:19 10° NE
Meteor 1-11 Rocket 4.2 06:43:39 10° SW 06:49:07 39° WNW 06:54:31 10° N
Cosmos 1544 Rocket 3.8 06:45:20 10° S 06:49:39 75° E 06:54:01 10° N
COSMO-SKYMED 1 4.0 06:46:47 10° SW 06:49:46 18° W 06:52:48 10° NW
Cosmos 2366 rocket 4.4 06:47:09 10° S 06:53:23 73° E 06:59:42 10° N
CZ-3 R/B 2.7 06:47:42 10° WSW 06:54:20 25° S 06:57:15 10° SE
Cosmos 1943 Rocket 3.1 06:49:43 10° N 06:55:02 48° ENE 07:00:19 10° SE
Cosmos 2218 Rocket 4.2 06:50:59 10° S 06:57:23 90° ENE 07:03:49 10° N
Cosmos 1452 Rocket 3.5 06:52:14 10° NNW 06:57:31 76° WSW 07:02:46 10° S
Okean 1-7 Rocket 4.4 06:54:56 10° NNW 06:58:46 30° W 07:02:35 10° SSW
Cosmos 44 3.7 06:54:20 10° SW 06:59:33 51° WNW 07:04:39 10° NNE
Okean 2 3.4 06:55:55 10° N 07:00:06 81° W 07:04:15 10° S
BREEZE M DEB (TANK) 4.0 06:47:36 10° WNW 07:04:27 57° SW 07:08:02 10° SSE
